Location: Katowice
(50.2611°N, 19.0242°E)
Time: 04:26:27
(UTC+02:00)

ISS - Pass Details

Date: 24 March 2019
Orbit: 408 x 410 km, 51.6° (Epoch: 21 April)

Event Time Altitude Azimuth Distance (km) Brightness Sun altitude
Rises 19:27:59 0° 236° (SW) 2,329 0.6 -14.1°
Reaches altitude 10° 19:30:05 10° 231° (SW) 1,470 -0.6 -14.4°
Maximum altitude 19:33:18 51° 155° (SSE) 520 -3.6 -14.9°
Enters shadow 19:34:21 35° 100° (E) 687 -3.2 -15.1°
